Regional Weather Roundup
Issued by NWS Cleveland, OH

Home | Current Version | Previous Version | Graphics & Text | Print | Product List | Glossary On
Versions: 1 2 3 4 5 6 7 8 9 10 11 12 13 14 15 16 17 18 19 20 21 22 23 24 25 26 27 28 29 30 31 32 33 34 35 36 37 38 39 40 41 42 43 44 45 46 47 48 49 50
546
ASUS41 KCLE 220002
RWRCLE
OHIO REGIONAL WEATHER ROUNDUP
NATIONAL WEATHER SERVICE CLEVELAND, OH
700 PM EST TUE FEB 21 2017

NOTE: "FAIR" INDICATES FEW OR NO CLOUDS BELOW 12,000 FEET WITH NO
SIGNIFICANT WEATHER AND/OR OBSTRUCTIONS TO VISIBILITY.

OHZ001>008-015>018-024>027-034-035-043-044-220100-
   NORTHWEST OHIO

CITY           SKY/WX    TMP DP  RH WIND       PRES   REMARKS
DEFIANCE       CLOUDY    53  50  89 CALM      29.95R
FINDLAY        CLOUDY    57  47  69 S5        29.95R
TOLEDO EXPRESS CLOUDY    53  50  89 CALM      29.94S
TOLEDO EXEC    CLOUDY    55  51  86 CALM      29.95S
LIMA           CLOUDY    59  49  69 S6        29.95S
$$

OHZ009>014-019>023-028>033-038-089-220100-
   NORTHEAST OHIO

CITY           SKY/WX    TMP DP  RH WIND       PRES   REMARKS
CLE-HOPKINS    CLOUDY    60  43  53 SW3       29.97S
CLE-LAKEFRONT  CLOUDY    50  40  68 NW5       29.94R
CUY CO. ARPT   CLOUDY    61  46  59 S6        29.95R
LORAIN-ELYRIA  CLOUDY    56  44  64 W5        29.96R
ASHTABULA      CLOUDY    56  46  69 S5        29.95S
AKRON-CANTON   CLOUDY    60  45  57 S8        29.97F
WOOSTER        CLOUDY    59  46  62 SW5       29.97S
MANSFIELD      CLOUDY    58  46  64 S5        29.97S
YOUNGSTOWN     CLOUDY    59  44  57 SW3       29.99R
$$

OHZ042-051>053-060>062-070>072-077>081-220100-
  SOUTHWEST OHIO

CITY           SKY/WX    TMP DP  RH WIND       PRES   REMARKS
CINC-COVINGTON LGT RAIN  56  55  97 CALM      29.99R
CINC-LUNKEN    LGT RAIN  56  56 100 CALM      30.01R FOG
HAMILTON       LGT RAIN  55  55 100 CALM      30.00R FOG
DAYTON         CLOUDY    60  48  64 S9        29.98R
WRIGHT-PAT AFB MOCLDY    59  51  75 S9        29.97R
DAYTON GENERAL LGT RAIN  55  54  96 S6        29.98R
WILMINGTON     LGT RAIN  54  53  97 CALM      30.00R
$$

OHZ036-037-039>041-045>050-054>059-063>069-073>076-082>088-220100-
  CENTRAL AND SOUTHEAST OHIO

CITY           SKY/WX    TMP DP  RH WIND       PRES   REMARKS
COLUMBUS       LGT RAIN  62  51  67 S5        29.98S
OSU AIRPORT    CLOUDY    62  50  64 S8        29.97S
BOLTON FIELD   LGT RAIN  57  52  82 W5        29.99S
RICKENBACK AFB DRIZZLE   57  52  82 SW8       30.00R
NEWARK         LGT RAIN  60  49  66 S5        29.98S
MARION         CLOUDY    58  47  66 S7        29.97S
LANCASTER      CLOUDY    59  52  77 S5        30.00S
ZANESVILLE     CLOUDY    62  47  57 S6        30.00R
NEW PHILLY     NOT AVBL
$$




USA.gov is the U.S. government's official web portal to all federal, state and local government web resources and services.